ワイズ彗星

360P/WISE (2017)

English version
Home page
Updated on March 16, 2018

---------------------------------------------------------------------

・ プロフィール

符号 360P/2017 S1
検出日 2017年9月20日
検出光度 19.4等
検出者 E. Schwab and D. Abreu (European Space Agency's Optical Ground Station at Tenerife)

・ 写真集

・ 軌道要素

Epoch 2017 Sept. 4.0 TT = JDT 2458000.5
T 2017 Aug. 18.42949 TT                                 MPCW
q   1.8607490            (2000.0)            P               Q
n   0.13816263     Peri.  354.15596     +0.99767036     +0.06633941
a   3.7057461      Node     2.23402     -0.03312201     +0.67485447
e   0.4978747      Incl.   24.07889     -0.05963883     +0.73496295
P   7.13
From 127 observations 2010 Aug. 6-2017 Dec. 14, mean residual 0".5.

・ 光度変化

        16.0 + 5 logΔ + 10.0 log r

---------------------------------------------------------------------

軌道要素はM.P.E.C. 2018-B155に掲載されたものです。
光度グラフはComet for Windowsで作成したものです。

---------------------------------------------------------------------

Copyright(C) Seiichi Yoshida (comet@aerith.net). All rights reserved.